CUBEBUG-2 (LO-74) (39440 NORAD) Tracking and Keplerian Element Data

This shows tracking and keplerian element data for the satellite.

Feedback or suggestion? Click here.




ElementValue
Catalog39440
NameCUBEBUG-2 (LO-74)
Epoch Orbit37210
Epoch Day293.68119375
Epoch Year2020
RAAN269.4051
Inclination97.6453
Eccentricity0.0078757
Argument of Perigee297.4964
Mean Anonmoly61.8257
Mean Motion14.76072693
Decay Rate2.61E-06
L11 39440U 13066AA 20293.68119375 .00000261 00000-0 43335-4 0 9993
L22 39440 97.6453 269.4051 0078757 297.4964 61.8257 14.76072693372105

Live tracking and technical data element details for CUBEBUG-2 (LO-74) (NORAD 39440). CUBEBUG-2 (LO-74) can be tracked NOW for your location showing map with azimuth and elevation plus other details from your city location.

Track the satellite on the map from your city or location and see movement details for azimuth, elevation, latitude, longitude, range, height, and movement on the map or in text.







IsCatalogInMostPopularTable: catalog: 39440, numindb: 388
Update: records affected: 1



GetName: 39440 CUBEBUG-2 (LO-74)

Hit Count: updated at: Tue, 20 Oct 2020 17:09:43 GMT